Location: Squamish
(49.7000°N, 123.1500°W)
Time: 16:29:14
(UTC-07:00)

Envisat - Visible Passes

Search period start: 24 March 2019 00:00
Search period end: 03 April 2019 00:00
Orbit: 764 x 766 km, 98.2° (Epoch: 24 March)

Date Brightness Start Highest point End Pass type
(mag) Time Alt. Az. Time Alt. Az. Time Alt. Az.
24 Mar 4.8 20:27:48 10° SSW 20:32:27 35° W 20:37:07 10° NNW visible
25 Mar 6.3 21:34:28 10° W 21:35:30 11° W 21:36:31 10° WNW visible
26 Mar 5.6 20:54:19 10° SW 20:58:13 22° W 21:02:09 10° NW visible
27 Mar 4.4 20:16:20 10° S 20:21:09 43° W 20:26:02 10° NNW visible
28 Mar 6.0 21:21:40 10° WSW 21:24:06 13° W 21:26:33 10° WNW visible
29 Mar 5.3 20:42:37 10° SSW 20:46:53 27° W 20:51:11 10° NW visible
30 Mar 4.0 20:04:56 10° S 20:09:53 53° W 20:14:53 10° NNW visible
31 Mar 5.8 21:09:31 10° SW 21:12:43 17° W 21:15:56 10° NW visible
01 Apr 4.9 20:31:02 10° SSW 20:35:34 33° W 20:40:09 10° NNW visible
